Location: Gleizolles
(44.4833°N, 6.7667°E)
Time: 10:58:19
(UTC+00:00)

USA 32 - Pass Details

Date: 09 April 2020
Orbit: 777 x 783 km, 85.0° (Epoch: 03 June)

Event Time Altitude Azimuth Distance (km) Brightness Sun altitude
Rises 20:18:50 0° 0° (N) 3,272 7.8 -21.6°
Reaches altitude 10° 20:21:19 10° 7° (N) 2,339 6.9 -21.9°
Maximum altitude 20:26:19 44° 80° (E) 1,063 4.4 -22.6°
Enters shadow 20:26:24 44° 82° (E) 1,063 4.4 -22.6°
